When you browse on this site, cookies collect data to enhance your experience and personalize the content and advertising you see.
Visit our Privacy Policy to learn more. By continuing to use the site, you agree to this use of cookies and data.
  • In Portugal
  • List of Countries
  • For 7 days
  • Water Temperature
  • Satellite Maps
  • Weather Map
  • Weather Widgets
  • user-avatar
    Login

    Hourly Weather Krzemianka

    Today, 25 May, Saturday

    Time Temperature Precipitation Wind Pressure Humidity
    00:00 +10°C° 0 mm 2 mps 737 mmHg 81%
    01:00 +10°C° 0 mm 1 mps 737 mmHg 80%
    02:00 +10°C° 0 mm 1 mps 736 mmHg 79%
    03:00 +10°C° 0 mm 1 mps 736 mmHg 79%
    04:00 +10°C° 0 mm 1 mps 736 mmHg 78%
    05:00 +9°C° 0 mm 2 mps 736 mmHg 78%
    06:00 +12°C° 0 mm 2 mps 736 mmHg 76%
    07:00 +13°C° 0 mm 3 mps 736 mmHg 75%
    08:00 +15°C° 0 mm 4 mps 736 mmHg 73%
    09:00 +17°C° 0 mm 4 mps 736 mmHg 69%
    10:00 +17°C° 0 mm 5 mps 736 mmHg 65%
    11:00 +19°C° 0 mm 5 mps 736 mmHg 62%
    12:00 +19°C° 0.3 mm 5 mps 736 mmHg 64%
    13:00 +19°C° 0.3 mm 6 mps 736 mmHg 67%
    14:00 +19°C° 0.3 mm 6 mps 736 mmHg 69%
    15:00 +17°C° 0 mm 6 mps 736 mmHg 70%
    16:00 +16°C° 0 mm 6 mps 736 mmHg 70%
    17:00 +15°C° 0 mm 6 mps 736 mmHg 71%
    18:00 +14°C° 0 mm 5 mps 736 mmHg 75%
    19:00 +12°C° 0 mm 4 mps 736 mmHg 79%
    20:00 +11°C° 0 mm 3 mps 736 mmHg 83%
    21:00 +10°C° 0 mm 3 mps 736 mmHg 86%
    22:00 +8°C° 0 mm 3 mps 737 mmHg 90%
    23:00 +7°C° 0 mm 2 mps 737 mmHg 94%

    Tomorrow, 26 May, Sunday

    Time Temperature Precipitation Wind Pressure Humidity
    00:00 +7°C° 0 mm 2 mps 737 mmHg 95%
    01:00 +6°C° 0 mm 2 mps 737 mmHg 96%
    02:00 +6°C° 0 mm 2 mps 737 mmHg 96%
    03:00 +6°C° 0 mm 2 mps 737 mmHg 96%
    04:00 +6°C° 0 mm 2 mps 737 mmHg 96%
    05:00 +6°C° 0 mm 2 mps 736 mmHg 96%
    06:00 +8°C° 0 mm 3 mps 737 mmHg 91%
    07:00 +10°C° 0 mm 4 mps 737 mmHg 86%
    08:00 +10°C° 0 mm 5 mps 737 mmHg 80%
    09:00 +12°C° 0 mm 5 mps 737 mmHg 76%
    10:00 +14°C° 0 mm 5 mps 736 mmHg 71%
    11:00 +15°C° 0 mm 6 mps 736 mmHg 67%
    12:00 +15°C° 0.1 mm 6 mps 736 mmHg 67%
    13:00 +15°C° 0.1 mm 6 mps 736 mmHg 68%
    14:00 +15°C° 0.1 mm 6 mps 736 mmHg 68%
    15:00 +15°C° 0.3 mm 6 mps 736 mmHg 72%
    16:00 +14°C° 0.3 mm 5 mps 735 mmHg 75%
    17:00 +14°C° 0.3 mm 5 mps 735 mmHg 78%
    18:00 +13°C° 0.1 mm 5 mps 735 mmHg 82%
    19:00 +13°C° 0.1 mm 4 mps 735 mmHg 85%
    20:00 +12°C° 0.1 mm 3 mps 735 mmHg 89%
    21:00 +12°C° 0 mm 3 mps 735 mmHg 89%
    22:00 +11°C° 0 mm 3 mps 735 mmHg 90%
    23:00 +11°C° 0 mm 3 mps 735 mmHg 91%

    Day after tomorrow, 27 May, Monday

    Time Temperature Precipitation Wind Pressure Humidity
    00:00 +11°C° 0.1 mm 3 mps 735 mmHg 91%
    01:00 +11°C° 0.1 mm 4 mps 735 mmHg 91%
    02:00 +12°C° 0.1 mm 4 mps 735 mmHg 91%
    03:00 +11°C° 0 mm 3 mps 735 mmHg 92%
    04:00 +11°C° 0 mm 3 mps 735 mmHg 93%
    05:00 +11°C° 0 mm 3 mps 735 mmHg 94%
    06:00 +12°C° 0 mm 4 mps 735 mmHg 92%
    07:00 +13°C° 0 mm 4 mps 735 mmHg 90%
    08:00 +13°C° 0 mm 5 mps 735 mmHg 88%
    09:00 +15°C° 0.1 mm 6 mps 735 mmHg 84%
    10:00 +16°C° 0.1 mm 7 mps 735 mmHg 80%
    11:00 +17°C° 0.1 mm 7 mps 735 mmHg 75%
    12:00 +18°C° 0.2 mm 7 mps 735 mmHg 74%
    13:00 +20°C° 0.2 mm 7 mps 734 mmHg 72%
    14:00 +20°C° 0.2 mm 7 mps 734 mmHg 70%
    15:00 +20°C° 0.5 mm 6 mps 734 mmHg 72%
    16:00 +20°C° 0.5 mm 5 mps 734 mmHg 75%
    17:00 +20°C° 0.5 mm 4 mps 734 mmHg 78%
    18:00 +19°C° 0.6 mm 3 mps 734 mmHg 82%
    19:00 +18°C° 0.6 mm 3 mps 734 mmHg 86%
    20:00 +17°C° 0.6 mm 2 mps 734 mmHg 91%
    21:00 +16°C° 0.3 mm 2 mps 734 mmHg 92%
    22:00 +15°C° 0.3 mm 2 mps 734 mmHg 93%
    23:00 +14°C° 0.3 mm 3 mps 734 mmHg 95%

    28 May, Tuesday

    Time Temperature Precipitation Wind Pressure Humidity
    00:00 +13°C° 0 mm 3 mps 735 mmHg 95%
    01:00 +13°C° 0 mm 3 mps 735 mmHg 96%
    02:00 +13°C° 0 mm 3 mps 735 mmHg 97%
    03:00 +13°C° 0 mm 2 mps 735 mmHg 96%
    04:00 +12°C° 0 mm 2 mps 735 mmHg 95%
    05:00 +11°C° 0 mm 1 mps 735 mmHg 94%
    06:00 +12°C° 0 mm 1 mps 736 mmHg 90%
    07:00 +13°C° 0 mm 1 mps 736 mmHg 86%
    08:00 +14°C° 0 mm 1 mps 736 mmHg 81%
    09:00 +15°C° 0.1 mm 1 mps 736 mmHg 81%
    10:00 +15°C° 0.1 mm 2 mps 736 mmHg 80%
    11:00 +16°C° 0.1 mm 2 mps 736 mmHg 79%
    12:00 +15°C° 0.6 mm 2 mps 736 mmHg 82%
    13:00 +15°C° 0.6 mm 2 mps 736 mmHg 86%
    14:00 +15°C° 0.6 mm 2 mps 735 mmHg 89%
    15:00 +13°C° 0.1 mm 3 mps 735 mmHg 90%
    16:00 +13°C° 0.1 mm 3 mps 735 mmHg 91%
    17:00 +13°C° 0.1 mm 3 mps 735 mmHg 91%
    18:00 +13°C° 0 mm 3 mps 735 mmHg 91%
    19:00 +13°C° 0 mm 3 mps 735 mmHg 91%
    20:00 +12°C° 0 mm 3 mps 735 mmHg 91%
    21:00 +12°C° 0.9 mm 3 mps 735 mmHg 92%
    22:00 +12°C° 0.9 mm 3 mps 735 mmHg 94%
    23:00 +12°C° 0.9 mm 4 mps 735 mmHg 95%

    29 May, Wednesday

    Time Temperature Precipitation Wind Pressure Humidity
    00:00 +12°C° 0.7 mm 4 mps 735 mmHg 95%
    01:00 +11°C° 0.7 mm 4 mps 735 mmHg 96%
    02:00 +11°C° 0.7 mm 4 mps 735 mmHg 96%
    03:00 +10°C° 1.3 mm 5 mps 735 mmHg 96%
    04:00 +10°C° 1.3 mm 5 mps 735 mmHg 96%
    05:00 +10°C° 1.3 mm 5 mps 735 mmHg 96%
    06:00 +9°C° 0.2 mm 5 mps 735 mmHg 95%
    07:00 +9°C° 0.2 mm 6 mps 736 mmHg 94%
    08:00 +8°C° 0.2 mm 6 mps 736 mmHg 93%
    09:00 +8°C° 0.1 mm 5 mps 737 mmHg 92%
    10:00 +9°C° 0.1 mm 5 mps 737 mmHg 91%
    11:00 +9°C° 0.1 mm 5 mps 738 mmHg 89%
    12:00 +10°C° 0 mm 5 mps 738 mmHg 85%
    13:00 +12°C° 0 mm 5 mps 739 mmHg 80%
    14:00 +13°C° 0 mm 4 mps 740 mmHg 75%
    15:00 +13°C° 0 mm 5 mps 740 mmHg 72%
    16:00 +13°C° 0 mm 6 mps 741 mmHg 69%
    17:00 +13°C° 0 mm 6 mps 741 mmHg 65%
    18:00 +10°C° 0 mm 6 mps 742 mmHg 69%
    19:00 +9°C° 0 mm 5 mps 742 mmHg 72%
    20:00 +7°C° 0 mm 4 mps 742 mmHg 75%
    21:00 +6°C° 0 mm 4 mps 743 mmHg 77%
    22:00 +5°C° 0 mm 3 mps 744 mmHg 79%
    23:00 +4°C° 0 mm 3 mps 744 mmHg 81%

    30 May, Thursday

    Time Temperature Precipitation Wind Pressure Humidity
    00:00 +3°C° 0 mm 3 mps 745 mmHg 84%
    01:00 +3°C° 0 mm 3 mps 745 mmHg 87%
    02:00 +2°C° 0 mm 3 mps 745 mmHg 90%
    03:00 +2°C° 0 mm 3 mps 746 mmHg 91%
    04:00 +2°C° 0 mm 3 mps 746 mmHg 92%
    05:00 +3°C° 0 mm 3 mps 746 mmHg 93%
    06:00 +6°C° 0 mm 2 mps 746 mmHg 87%
    07:00 +8°C° 0 mm 2 mps 747 mmHg 81%
    08:00 +12°C° 0 mm 2 mps 747 mmHg 74%
    09:00 +13°C° 0 mm 2 mps 747 mmHg 67%
    10:00 +14°C° 0 mm 2 mps 747 mmHg 59%
    11:00 +16°C° 0 mm 2 mps 747 mmHg 51%
    12:00 +16°C° 0 mm 2 mps 746 mmHg 49%
    13:00 +17°C° 0 mm 2 mps 746 mmHg 47%
    14:00 +18°C° 0 mm 2 mps 746 mmHg 46%
    15:00 +18°C° 0 mm 2 mps 745 mmHg 47%
    16:00 +18°C° 0 mm 2 mps 745 mmHg 48%
    17:00 +18°C° 0 mm 2 mps 745 mmHg 49%
    18:00 +16°C° 0 mm 2 mps 744 mmHg 57%
    19:00 +15°C° 0 mm 2 mps 744 mmHg 64%
    20:00 +13°C° 0 mm 2 mps 744 mmHg 71%
    21:00 +12°C° 0 mm 2 mps 744 mmHg 72%
    22:00 +10°C° 0 mm 3 mps 744 mmHg 73%
    23:00 +9°C° 0 mm 3 mps 743 mmHg 74%
    Show more